Location: Unspecified
(0.0000°N, 0.0000°E)
Time: 13:56:08
(UTC+00:00)

OTV 4 - Visible Passes

Search period start: 23 April 2017 00:00
Search period end: 03 May 2017 00:00
Orbit: 319 x 339 km, 38.0° (Epoch: 17 April)

Date Brightness Start Highest point End Pass type
(mag) Time Alt. Az. Time Alt. Az. Time Alt. Az.
30 Apr 2.4 18:55:15 10° N 18:57:05 16° NE 18:57:14 16° NE visible
01 May 0.4 19:12:06 10° NW 19:14:42 68° N 19:14:42 68° N visible
02 May 2.8 19:30:31 10° W 19:32:11 19° WSW 19:32:11 19° WSW visible
